Regional Weather Roundup
Issued by NWS

Home | Current Version | Previous Version | Graphics & Text | Print | Product List | Glossary On
Versions: 1 2 3 4 5 6 7 8 9 10 11 12 13 14 15 16 17 18 19 20 21 22 23 24 25 26 27 28 29 30 31 32 33 34 35 36 37 38 39 40 41 42 43 44 45 46 47 48 49 50
000
ASUS43 KMKX 210021
RWRWI

WISCONSIN REGIONAL WEATHER ROUNDUP
NATIONAL WEATHER SERVICE MILWAUKEE/SULLIVAN WI
700 PM CDT SAT SEP 20 2014

NOTE: "FAIR" INDICATES FEW OR NO CLOUDS BELOW 12,000 FEET WITH NO
SIGNIFICANT WEATHER AND/OR OBSTRUCTIONS TO VISIBILITY.

WIZ001-002-006>008-014>016-023>028-210100-
NORTHWEST WISCONSIN

CITY           SKY/WX    TMP DP  RH WIND       PRES   REMARKS
SUPERIOR ARPT  RAIN      58  53  84 NW14G31   29.69R
6HR MIN TEMP:  58; 6HR MAX TEMP:  71; 6HR PCP:  0.03;

ASHLAND        PTCLDY    57  54  89 S3        29.70S
6HR MIN TEMP:  57; 6HR MAX TEMP:  70;

HAYWARD        CLOUDY    64  54  69 SW3       29.71F
6HR MIN TEMP:  64; 6HR MAX TEMP:  70;

SIREN          RAIN      56  54  92 N6G22     29.74R
6HR MIN TEMP:  56; 6HR MAX TEMP:  70; 6HR PCP:  0.31;

RICE LAKE      HVY RAIN  65  56  71 CALM      29.74F VSB 3/4
6HR MIN TEMP:  65; 6HR MAX TEMP:  72;

LADYSMITH      CLOUDY    63  55  75 W3        29.74F
6HR MIN TEMP:  63; 6HR MAX TEMP:  73;

EAU CLAIRE     CLOUDY    68  55  63 CALM      29.72S
6HR MIN TEMP:  68; 6HR MAX TEMP:  77;

MENOMONIE      LGT RAIN  69  56  64 SW5       29.72F
6HR MIN TEMP:  69; 6HR MAX TEMP:  77;

NEW RICHMOND   RAIN      59  57  95 E5G22     29.71F
6HR MIN TEMP:  59; 6HR MAX TEMP:  75; 6HR PCP:  0.10;

OSCEOLA        LGT RAIN  60  59  98 NW6       29.77F
6HR MIN TEMP:  60; 6HR MAX TEMP:  74; 6HR PCP:  0.16;

$$

WIZ003>005-009-010-017-018-210100-
NORTH CENTRAL WISCONSIN

CITY           SKY/WX    TMP DP  RH WIND       PRES   REMARKS
WOODRUFF       CLEAR     62  53  72 N5        29.71S
6HR MIN TEMP:  62; 6HR MAX TEMP:  72;

RHINELANDER    CLEAR     63  53  70 NW5       29.72R
6HR MIN TEMP:  62; 6HR MAX TEMP:  72;

EAGLE RIVER    CLEAR     60  53  77 N3        29.72R
6HR MIN TEMP:  59; 6HR MAX TEMP:  71;

LAND O LAKES   CLEAR     59  53  81 CALM      29.74R
6HR MIN TEMP:  59; 6HR MAX TEMP:  69;

PHILLIPS       CLOUDY    62  53  72 NW3       29.70F
6HR MIN TEMP:  62; 6HR MAX TEMP:  71;

TOMAHAWK       CLEAR     61  52  72 CALM      29.72S
6HR MIN TEMP:  61; 6HR MAX TEMP:  74;

MEDFORD        PTCLDY    63  55  74 CALM      29.72F
6HR MIN TEMP:  63; 6HR MAX TEMP:  73;

MERRILL        PTCLDY    65  56  72 W6        29.71S
6HR MIN TEMP:  65; 6HR MAX TEMP:  75;

$$

WIZ029-030-035-036-043>047-210100-
CENTRAL WISCONSIN

CITY           SKY/WX    TMP DP  RH WIND       PRES   REMARKS
WAUSAU         CLEAR     67  56  67 W7        29.70S
6HR MIN TEMP:  67; 6HR MAX TEMP:  76;

MOSINEE        PTCLDY    64  57  77 W7        29.73R
MARSHFIELD     CLEAR     66  56  70 W6        29.72S
6HR MIN TEMP:  66; 6HR MAX TEMP:  76;

STEVENS POINT  CLEAR     67  56  69 SW5       29.72S
6HR MIN TEMP:  67; 6HR MAX TEMP:  74;

WAUPACA        CLEAR     70  58  65 W3        29.71S
6HR MIN TEMP:  70; 6HR MAX TEMP:  78;

WAUTOMA        CLEAR     69  59  70 CALM      29.72S
6HR MIN TEMP:  69; 6HR MAX TEMP:  78;

WISC RAPIDS    CLEAR     66  57  72 SW5       29.73F
6HR MIN TEMP:  66; 6HR MAX TEMP:  78;

CAMP DOUGLAS   CLEAR     64  59  84 SW3       29.73F
6HR MIN TEMP:  64; 6HR MAX TEMP:  77;

$$

WIZ011>013-019>022-031-037>040-048>050-210100-
NORTHEAST WISCONSIN

CITY           SKY/WX    TMP DP  RH WIND       PRES   REMARKS
ANTIGO         PTCLDY    64  55  71 W6        29.71S
6HR MIN TEMP:  64; 6HR MAX TEMP:  74;

STURGEON BAY   MOCLDY    68  63  83 W5        29.67F
6HR MIN TEMP:  66; 6HR MAX TEMP:  73;

GREEN BAY      CLEAR     68  60  75 W8        29.68S
6HR MIN TEMP:  68; 6HR MAX TEMP:  75;

MANITOWOC      PTCLDY    69  64  84 SW8       29.70R
6HR MIN TEMP:  69; 6HR MAX TEMP:  73; 6HR PCP:  0.01;

APPLETON       PTCLDY    70  61  73 W7        29.71R
CLINTONVILLE   CLEAR     68  55  64 W5        29.69S
OSHKOSH        PTCLDY    70  63  78 VRB3      29.71R
6HR MIN TEMP:  69; 6HR MAX TEMP:  74; 6HR PCP:  0.01;

$$

WIZ032>034-041-042-053>061-210100-
SOUTHWEST WISCONSIN

CITY           SKY/WX    TMP DP  RH WIND       PRES   REMARKS
LA CROSSE      PTCLDY    71  58  63 SW5       29.72F
6HR MIN TEMP:  71; 6HR MAX TEMP:  80;

SPARTA         PTCLDY    66  59  76 CALM      29.74F
6HR MIN TEMP:  66; 6HR MAX TEMP:  78;

VIROQUA        FAIR      67  57  70 W7        29.75F
6HR MIN TEMP:  67; 6HR MAX TEMP:  78;

BOSCOBEL       CLEAR     74  58  57 SW3       29.75S
6HR MIN TEMP:  71; 6HR MAX TEMP:  82;

PRAIRIE DU CHI CLEAR     73  57  59 SW3       29.75F
6HR MIN TEMP:  70; 6HR MAX TEMP:  81;

PLATTEVILLE    FAIR      71  62  71 W7        29.78F
6HR MIN TEMP:  71; 6HR MAX TEMP:  79;

$$

WIZ056-057-062-063-064-067-068-210100-
SOUTH CENTRAL WISCONSIN

CITY           SKY/WX    TMP DP  RH WIND       PRES   REMARKS
BARABOO/DELLS  CLEAR     68  59  73 SW3       29.74F
6HR MIN TEMP:  67; 6HR MAX TEMP:  76; 6HR PCP:  0.01;

LONE ROCK      CLEAR     76  59  55 W6        29.74F
6HR MIN TEMP:  73; 6HR MAX TEMP:  81; 6HR PCP: TRACE;

WATERTOWN      MOCLDY    71  61  71 SW5       29.75R
6HR MIN TEMP:  71; 6HR MAX TEMP:  76;

MADISON        MOCLDY    73  62  68 CALM      29.75S
6HR MIN TEMP:  71; 6HR MAX TEMP:  78; 6HR PCP:  0.01;

MIDDLETON      FAIR      71  62  74 CALM      29.76S
6HR MIN TEMP:  71; 6HR MAX TEMP:  79;

MONROE         PTCLDY    72  63  73 SW9       29.77S
JANESVILLE     CLEAR     73  63  68 SW8       29.76S
$$

WIZ051-052-058>065-066-070>072-210100-
SOUTHEAST WISCONSIN

CITY           SKY/WX    TMP DP  RH WIND       PRES   REMARKS
MILWAUKEE      PTCLDY    72  62  71 SW10      29.74S
6HR MIN TEMP:  71; 6HR MAX TEMP:  78; 6HR PCP:  0.01;

WAUKESHA       MOCLDY    70  63  78 SW6       29.76S
MILWAUKEE/TIMM CLEAR     72  61  68 SW5       29.75S
RACINE         CLEAR     69  65  86 SW9       29.77S
6HR MIN TEMP:  69; 6HR MAX TEMP:  79; 6HR PCP:  0.30;

BURLINGTON     CLEAR     65  62  88 SW7       29.77S
6HR MIN TEMP:  65; 6HR MAX TEMP:  76; 6HR PCP:  0.31;

KENOSHA        CLEAR     69  64  84 SW7       29.77S
6HR MIN TEMP:  69; 6HR MAX TEMP:  77; 6HR PCP:  0.11;

FOND DU LAC    CLEAR     69  62  78 SW5       29.72S
6HR MIN TEMP:  69; 6HR MAX TEMP:  73; 6HR PCP:  0.03;

SHEBOYGAN      CLEAR     67  61  81 SW9       29.71S
6HR MIN TEMP:  67; 6HR MAX TEMP:  76; 6HR PCP:  0.01;

WEST BEND      CLEAR     68  59  73 SW5       29.73S
JUNEAU         CLEAR     67  62  81 SW7       29.75S
6HR MIN TEMP:  67; 6HR MAX TEMP:  75; 6HR PCP:  0.01;

$$

LSZ147-162-210100-
LAKE SUPERIOR

STATION/POSITION TIME  TEMP    WIND        PRES    WAVE
                       AIR SEA DIR/SP/G            HT/PER
                 (UTC) (F)     (DEG/KT/KT) (MB)    (FT/S)
W MID LAKE BUOY  2350   52 47  250/  6/  8 1005.5R   2/ 4
DEVILS ISLAND    0000   59      20/  4/  4 1005.6F
PORT WING        2300   58      60/  2/  4 1005.8R
SAXON HARBOR     2340   58        CALM     1006.1F
$$

LMZ867-665-643>646-210100-
LAKE MICHIGAN

STATION/POSITION TIME  TEMP    WIND        PRES    WAVE
                       AIR SEA DIR/SP/G            HT/PER
                 (UTC) (F)     (DEG/KT/KT) (MB)    (FT/S)
N MID LAKE BUOY  2350   61 58  290/  8/ 10 1003.7F   4/ 6
NORTHPORT PIER   2300   71     240/  3/  5 1004.4R
SISTER BAY       2327          270/  4/  5   N/A
KEWAUNEE LAKESHO 0000   70     210/  6/  9 1004.1S
SHEBOYGAN LAKESH 0000   71 53  240/  8/  9 1006.0R
PORT WASHINGTON  2300   76     280/  4/ 10 1007.1R
ATWATER BUOY     0000   68     230/  6/  8 1008.3R
MILWAUKEE LAKESH 0000   72     240/  6/  9   N/A
S MID LAKE BUOY  2350   66 63  230/ 12/ 14 1007.8R   2/ 4
KENOSHA   LAKESH 0000   71     220/  8/ 14 1007.8S
$$

TC  - TEMPERATURE IN CELSIUS
VSB - VISIBILITY IN STATUTE MILES
WCI - WIND CHILL INDEX
HX  - HEAT INDEX



USA.gov is the U.S. government's official web portal to all federal, state and local government web resources and services.